Weather History for Ireland West Airport Knock, Ireland

Change the Weather History Date:

Saturday, February 16, 2013

  Actual Average Record
Temperature  
Mean Temperature 46 °F -  
Max Temperature 50 °F - - ()
Min Temperature 41 °F - - ()
Degree Days  
Heating Degree Days 20    
Moisture  
Dew Point 46 °F    
Average Humidity 96    
Maximum Humidity 100    
Minimum Humidity 87    
Precipitation  
Precipitation 0.03 in - - ()
Sea Level Pressure  
Sea Level Pressure 29.96 in    
Wind  
Wind Speed 11 mph ()    
Max Wind Speed 20 mph    
Max Gust Speed 30 mph    
Visibility 4.8 miles    
Events Fog , Rain    
T = Trace of Precipitation, MM = Missing Value Source: Averaged Metar Reports

Daily Weather History Graph

Daily Weather History Graph

Search for Another Location

Airport:

Trip Planner

Search our weather history database for the weather conditions in past years. The results will help you decide how hot, cold, wet, or windy it might be!

Date:

Astronomy

Feb. 16, 2013 Rise Set
Actual Time 7:52 AM GMT 5:46 PM GMT
Civil Twilight 7:15 AM GMT 6:23 PM GMT
Nautical Twilight 6:34 AM GMT 7:04 PM GMT
Astronomical Twilight 5:54 AM GMT 7:45 PM GMT
Moon 9:53 AM GMT (2/16) 12:35 AM GMT (2/16)
Length of Visible Light 11h 07m
Length of Day
9h 54m
Waxing Crescent, 37% of the Moon is Illuminated
Feb 16
Waxing Crescent
Feb 17
First Quarter
Feb 25
Full
Mar 4
Last Quarter
Mar 11
New

Hourly Weather History & Observations

Time (GMT) Temp. Windchill Dew Point Humidity Pressure Visibility Wind Dir Wind Speed Gust Speed Precip Events Conditions
12:00 AM 43 °F - 43 °F 100% 30.06 in - South 8.9 mph - -  
6:00 AM 43 °F - 43 °F 100% 30.03 in 0 mi SSE 6.7 mph - - Rain Light Drizzle
6:30 AM 42.8 °F 38.6 °F 42.8 °F 100% 29.98 in 0.1 mi SE 6.9 mph - N/A Fog Light Drizzle
7:00 AM 42.8 °F 38.6 °F 42.8 °F 100% 29.98 in 0.1 mi SE 6.9 mph - N/A Fog Light Drizzle
7:30 AM 44.6 °F 39.7 °F 44.6 °F 100% 29.98 in 0.1 mi SE 9.2 mph - N/A Fog Light Drizzle
8:00 AM 44.6 °F 38.8 °F 44.6 °F 100% 29.98 in 0.1 mi SSE 11.5 mph - N/A Fog Fog
8:30 AM 44.6 °F 38.8 °F 44.6 °F 100% 29.98 in 0.1 mi SSE 11.5 mph - N/A Fog Fog
9:00 AM 44.6 °F 38.4 °F 44.6 °F 100% 29.98 in 0.1 mi SSE 12.7 mph - N/A Fog Fog
9:30 AM 46.4 °F 40.7 °F 44.6 °F 93% 29.98 in 6.2 mi SSE 12.7 mph - N/A   Overcast
10:00 AM 46.4 °F 39.8 °F 46.4 °F 100% 29.98 in 6.2 mi SSE 16.1 mph - N/A   Overcast
10:30 AM 46.4 °F 39.5 °F 46.4 °F 100% 29.98 in 6.2 mi SSE 17.3 mph - N/A   Overcast
11:00 AM 48.2 °F - 46.4 °F 93% 29.98 in 6.2 mi SSE 17.3 mph - N/A   Mostly Cloudy
11:30 AM 48.2 °F - 48.2 °F 100% 29.95 in 6.2 mi South 17.3 mph - N/A   Mostly Cloudy
12:00 PM 49 °F - 47 °F 91% 29.99 in 16 mi SSE 17.9 mph - -   Partly Cloudy
12:00 PM 48.2 °F - 46.4 °F 93% 29.95 in 6.2 mi SSE 17.3 mph - N/A   Mostly Cloudy
12:30 PM 50.0 °F - 46.4 °F 87% 29.95 in 6.2 mi South 13.8 mph - N/A   Mostly Cloudy
1:00 PM 50.0 °F - 46.4 °F 87% 29.95 in 6.2 mi South 15.0 mph - N/A   Light Drizzle
1:30 PM 48.2 °F - 48.2 °F 100% 29.95 in 5.0 mi South 13.8 mph - N/A Rain Light Rain
2:00 PM 48.2 °F - 48.2 °F 100% 29.95 in 5.6 mi South 13.8 mph - N/A Rain Light Rain
2:30 PM 50.0 °F - 48.2 °F 94% 29.92 in 6.2 mi SSE 17.3 mph - N/A   Mostly Cloudy
3:00 PM 50.0 °F - 48.2 °F 94% 29.92 in 6.2 mi SSE 19.6 mph - N/A   Mostly Cloudy
3:30 PM 50.0 °F - 46.4 °F 87% 29.92 in 6.2 mi SSE 18.4 mph - N/A   Mostly Cloudy
4:00 PM 50.0 °F - 46.4 °F 87% 29.92 in 6.2 mi SSE 17.3 mph - N/A   Mostly Cloudy
4:30 PM 48.2 °F - 46.4 °F 93% 29.92 in 6.2 mi SSE 18.4 mph 29.9 mph N/A   Mostly Cloudy
5:00 PM 48.2 °F - 46.4 °F 93% 29.92 in 6.2 mi SSE 18.4 mph - N/A   Mostly Cloudy
6:00 PM 47 °F - 46 °F 93% 29.94 in 6 mi SSE 17.9 mph - - Rain Light Rain